Weather History for Madison, WI

Change the Weather History Date:

Saturday, January 12, 2013

  Actual Average Record
Temperature  
Mean Temperature 35 °F 18 °F  
Max Temperature 48 °F 26 °F 55 °F (1871)
Min Temperature 22 °F 11 °F -25 °F (1912)
Degree Days  
Heating Degree Days 30 47  
Month to date heating degree days 482 553  
Since 1 July heating degree days 3077 3432  
Cooling Degree Days 0 0  
Month to date cooling degree days 0 0  
Year to date cooling degree days 0 0  
Moisture  
Dew Point 26 °F    
Average Humidity 75    
Maximum Humidity 86    
Minimum Humidity 63    
Precipitation  
Precipitation T in 0.04 in 1.07 in (1960)
Month to date precipitation 0.28 0.49  
Year to date precipitation 0.28 0.49  
Snow  
Snow T in 0.40 in 11.70 in (1966)
Month to date snowfall T 4.9  
Since 1 July snowfall 23.5 22.5  
Snow Depth 3.00 in    
Sea Level Pressure  
Sea Level Pressure 29.85 in    
Wind  
Wind Speed 9 mph (WSW)    
Max Wind Speed 17 mph    
Max Gust Speed 24 mph    
Visibility 10 miles    
Events Snow    
T = Trace of Precipitation, MM = Missing Value Source: NWS Daily Summary

Daily Weather History Graph

Daily Weather History Graph

Search for Another Location

Airport:

Trip Planner

Search our weather history database for the weather conditions in past years. The results will help you decide how hot, cold, wet, or windy it might be!

Date:

Astronomy

Jan. 12, 2013 Rise Set
Actual Time 7:27 AM CST 4:44 PM CST
Civil Twilight 6:55 AM CST 5:16 PM CST
Nautical Twilight 6:20 AM CST 5:51 PM CST
Astronomical Twilight 5:46 AM CST 6:25 PM CST
Moon 7:43 AM CST (1/12) 6:16 PM CST (1/12)
Length of Visible Light 10h 20m
Length of Day
9h 17m
New Moon, 1% of the Moon is Illuminated
Jan 12
New Moon
Jan 18
First Quarter
Jan 26
Full
Feb 3
Last Quarter
Feb 10
New

Hourly Weather History & Observations

Time (CST) Temp. Windchill Dew Point Humidity Pressure Visibility Wind Dir Wind Speed Gust Speed Precip Events Conditions
12:53 AM 46.0 °F 40.6 °F 42.1 °F 86% 29.61 in 10.0 mi South 11.5 mph - N/A   Clear
1:53 AM 46.0 °F 40.6 °F 42.1 °F 86% 29.62 in 10.0 mi South 11.5 mph - N/A   Clear
2:53 AM 46.9 °F - 42.1 °F 83% 29.62 in 10.0 mi South 13.8 mph 23.0 mph N/A   Clear
3:53 AM 46.9 °F - 42.1 °F 83% 29.63 in 10.0 mi South 12.7 mph - N/A   Clear
4:53 AM 48.0 °F - 42.1 °F 80% 29.63 in 10.0 mi SSW 12.7 mph 21.9 mph N/A   Clear
5:53 AM 46.9 °F - 39.0 °F 74% 29.68 in 10.0 mi SW 13.8 mph 21.9 mph N/A   Mostly Cloudy
6:24 AM 42.8 °F 38.0 °F 37.4 °F 81% 29.69 in 10.0 mi WSW 8.1 mph - N/A   Mostly Cloudy
6:53 AM 39.9 °F 32.1 °F 33.1 °F 77% 29.74 in 10.0 mi WSW 13.8 mph 21.9 mph N/A   Scattered Clouds
7:53 AM 36.0 °F 28.5 °F 28.9 °F 76% 29.80 in 10.0 mi WSW 10.4 mph 24.2 mph N/A   Scattered Clouds
8:53 AM 33.1 °F 23.9 °F 27.0 °F 78% 29.86 in 10.0 mi West 12.7 mph 24.2 mph N/A   Partly Cloudy
9:53 AM 32.0 °F 24.2 °F 26.1 °F 79% 29.87 in 10.0 mi WSW 9.2 mph 18.4 mph N/A   Partly Cloudy
10:53 AM 30.9 °F 21.2 °F 21.9 °F 69% 29.91 in 10.0 mi SW 12.7 mph 20.7 mph N/A   Partly Cloudy
11:53 AM 30.0 °F 21.7 °F 19.9 °F 66% 29.89 in 10.0 mi WSW 9.2 mph 20.7 mph N/A   Clear
12:53 PM 30.0 °F 21.1 °F 19.9 °F 66% 29.92 in 10.0 mi SW 10.4 mph 20.7 mph N/A   Clear
1:53 PM 30.0 °F 21.7 °F 19.9 °F 66% 29.94 in 10.0 mi SW 9.2 mph 16.1 mph N/A   Clear
2:53 PM 30.0 °F 24.1 °F 19.0 °F 64% 29.95 in 10.0 mi Variable 5.8 mph - N/A   Clear
3:53 PM 28.0 °F 18.6 °F 18.0 °F 66% 29.97 in 10.0 mi WSW 10.4 mph 16.1 mph N/A   Scattered Clouds
4:53 PM 28.0 °F 21.7 °F 18.0 °F 66% 29.99 in 10.0 mi Variable 5.8 mph - N/A   Mostly Cloudy
5:53 PM 27.0 °F 21.6 °F 17.1 °F 66% 29.94 in 10.0 mi NW 4.6 mph - N/A   Overcast
7:53 PM 26.1 °F - 17.1 °F 69% 30.02 in 10.0 mi Calm Calm - N/A   Overcast
8:53 PM 26.1 °F 21.9 °F 16.0 °F 66% 30.04 in 10.0 mi West 3.5 mph - N/A   Overcast
9:53 PM 24.1 °F 16.0 °F 16.0 °F 71% 30.00 in 10.0 mi WNW 6.9 mph - N/A   Overcast
10:53 PM 23.0 °F 12.4 °F 15.1 °F 72% 29.98 in 8.0 mi NW 10.4 mph 16.1 mph 0.00 in Snow Light Snow
11:53 PM 21.9 °F 12.5 °F 15.1 °F 75% 30.00 in 9.0 mi WNW 8.1 mph - 0.00 in Snow Light Snow